EW7535 Weather Reports


Display with metric or nautical units.
time (UTC)temp
F
wind
direction
speed
MPH
gust
MPH
rain 1hr
in
rain 24hr
in
rain mn
in
humidity
%
barometer
mb
20260906224600 97 302 9.0 19.0 0.00 0.00 0.00 30 1004.3
20260906223028 97 279 10.0 19.0 0.00 0.00 0.00 30 1004.4
20260906221533 96 283 12.0 21.0 0.00 0.00 0.00 31 1004.5
20260906220022 96 293 11.0 21.0 0.00 0.00 0.00 31 1004.6
20260906214520 97 292 7.0 15.0 0.00 0.00 0.00 31 1004.8
20260906213019 97 293 8.0 15.0 0.00 0.00 0.00 31 1005.0
20260906211517 96 255 8.0 16.0 0.00 0.00 0.00 31 1005.1
20260906210056 96 314 8.0 18.0 0.00 0.00 0.00 32 1005.3
20260906204556 96 158 9.0 16.0 0.00 0.00 0.00 33 1005.4
20260906203040 95 293 12.0 20.0 0.00 0.00 0.00 33 1005.6
20260906201545 95 249 8.0 22.0 0.00 0.00 0.00 34 1005.7
20260906200036 94 275 9.0 19.0 0.00 0.00 0.00 35 1005.9
20260906194535 94 302 11.0 18.0 0.00 0.00 0.00 35 1006.0
20260906193030 94 266 5.0 15.0 0.00 0.00 0.00 36 1006.3
20260906191525 93 290 6.0 16.0 0.00 0.00 0.00 37 1006.6
20260906190024 92 294 5.0 12.0 0.00 0.00 0.00 37 1006.9
20260906184521 92 280 6.0 14.0 0.00 0.00 0.00 38 1007.0
20260906183022 91 267 6.0 12.0 0.00 0.00 0.00 38 1007.2
20260906181532 91 236 4.0 8.0 0.00 0.00 0.00 39 1007.5
20260906180024 90 304 1.0 4.0 0.00 0.00 0.00 40 1007.7
20260906174513 88 257 0.0 5.0 0.00 0.00 0.00 43 1007.9
20260906173041 88 290 2.0 6.0 0.00 0.00 0.00 42 1007.9
20260906171546 90 262 0.0 2.0 0.00 0.00 0.00 41 1007.9
20260906170030 88 304 1.0 5.0 0.00 0.00 0.00 43 1007.9
20260906164531 87 268 0.0 0.0 0.00 0.00 0.00 45 1008.1
20260906163026 87 139 0.0 0.0 0.00 0.00 0.00 45 1008.1
20260906161537 86 139 0.0 4.0 0.00 0.00 0.00 45 1008.3
20260906160053 85 129 0.0 3.0 0.00 0.00 0.00 46 1008.2
20260906154551 84 129 0.0 0.0 0.00 0.00 0.00 48 1008.1
20260906153104 83 105 0.0 0.0 0.00 0.00 0.00 49 1008.3
20260906151542 82 86 0.0 2.0 0.00 0.00 0.00 50 1008.4
20260906150041 81 91 0.0 3.0 0.00 0.00 0.00 53 1008.5
20260906144540 81 99 0.0 0.0 0.00 0.00 0.00 53 1008.6
20260906143037 79 99 0.0 0.0 0.00 0.00 0.00 56 1008.5
20260906141540 78 99 0.0 0.0 0.00 0.00 0.00 58 1008.3
20260906140036 77 99 0.0 0.0 0.00 0.00 0.00 58 1008.1
20260906134532 77 99 0.0 0.0 0.00 0.00 0.00 58 1007.9
20260906133002 77 99 0.0 0.0 0.00 0.00 0.00 56 1007.8
20260906131502 78 99 0.0 0.0 0.00 0.00 0.00 55 1007.7
20260906124559 78 105 0.0 4.0 0.00 0.00 0.00 56 1007.8
20260906123105 77 96 0.0 3.0 0.00 0.00 0.00 57 1007.6
20260906121556 76 103 0.0 0.0 0.00 0.00 0.00 61 1007.7
20260906120053 77 103 0.0 0.0 0.00 0.00 0.00 61 1007.3
20260906114552 77 136 0.0 0.0 0.00 0.00 0.00 61 1007.2
20260906113049 77 136 0.0 0.0 0.00 0.00 0.00 60 1007.1
20260906111551 78 136 0.0 0.0 0.00 0.00 0.00 60 1007.1
20260906110017 78 136 0.0 0.0 0.00 0.00 0.00 60 1007.0
20260906104517 78 136 0.0 0.0 0.00 0.00 0.00 59 1006.9
20260906103016 77 148 0.0 2.0 0.00 0.00 0.00 59 1006.8
20260906101514 77 74 0.0 0.0 0.00 0.00 0.00 61 1006.7
20260906100023 77 74 0.0 0.0 0.00 0.00 0.00 60 1006.7
20260906094510 77 74 0.0 0.0 0.00 0.00 0.00 60 1006.7
20260906093109 78 74 0.0 0.0 0.00 0.00 0.00 58 1006.6
20260906091537 78 74 0.0 0.0 0.00 0.00 0.00 58 1006.7
20260906090047 78 74 0.0 0.0 0.00 0.00 0.00 57 1006.8
20260906084504 80 74 0.0 0.0 0.00 0.00 0.00 53 1006.7
20260906083004 79 106 0.0 0.0 0.00 0.00 0.00 54 1006.8
20260906081557 79 106 0.0 0.0 0.00 0.00 0.00 56 1006.9
20260906080054 81 106 0.0 0.0 0.00 0.00 0.00 54 1007.0
20260906074550 82 106 0.0 0.0 0.00 0.00 0.00 50 1007.0
20260906073048 81 106 0.0 0.0 0.00 0.00 0.00 51 1007.1
20260906071544 82 106 0.0 0.0 0.00 0.00 0.00 50 1007.2
20260906070045 82 106 0.0 0.0 0.00 0.00 0.00 50 1007.2
20260906064544 83 106 0.0 0.0 0.00 0.00 0.00 48 1007.1
20260906063043 84 106 0.0 0.0 0.00 0.00 0.00 47 1007.2
20260906061546 85 106 0.0 0.0 0.00 0.00 0.00 44 1007.2
20260906060050 87 294 0.0 4.0 0.00 0.00 0.00 41 1007.1
20260906054544 87 288 2.0 8.0 0.00 0.00 0.00 40 1007.2
20260906053039 88 293 4.0 6.0 0.00 0.00 0.00 40 1007.2
20260906051537 88 295 4.0 10.0 0.00 0.00 0.00 40 1007.3
20260906050035 88 294 3.0 6.0 0.00 0.00 0.00 40 1007.4
20260906044535 89 281 4.0 8.0 0.00 0.00 0.00 39 1007.3
20260906043035 89 309 4.0 9.0 0.00 0.00 0.00 39 1007.3
20260906041503 89 305 3.0 8.0 0.00 0.00 0.00 39 1007.3
20260906040002 89 307 4.0 11.0 0.00 0.00 0.00 39 1007.4
20260906034605 89 288 6.0 10.0 0.00 0.00 0.00 39 1007.3
20260906033059 90 305 5.0 9.0 0.00 0.00 0.00 39 1007.1
20260906031558 90 289 6.0 10.0 0.00 0.00 0.00 39 1006.9
20260906030058 90 316 4.0 13.0 0.00 0.00 0.00 39 1006.8
20260906024557 90 297 5.0 12.0 0.00 0.00 0.00 39 1006.6
20260906023055 90 295 3.0 8.0 0.00 0.00 0.00 39 1006.5
20260906021559 91 293 2.0 9.0 0.00 0.00 0.00 38 1006.3
20260906020052 91 323 3.0 9.0 0.00 0.00 0.00 37 1006.3
20260906014552 91 261 6.0 11.0 0.00 0.00 0.00 37 1006.3
20260906013050 92 230 6.0 14.0 0.00 0.00 0.00 37 1006.2
20260906011548 93 304 7.0 13.0 0.00 0.00 0.00 36 1006.2
20260906010113 93 283 9.0 15.0 0.00 0.00 0.00 36 1006.4
20260906004556 94 285 9.0 17.0 0.00 0.00 0.00 35 1006.2
20260906003046 94 270 8.0 16.0 0.00 0.00 0.00 35 1006.2
20260906001559 95 302 7.0 17.0 0.00 0.00 0.00 35 1006.2
20260906000044 95 285 9.0 17.0 0.00 0.00 0.00 35 1006.2
20260905234540 95 297 8.0 19.0 0.00 0.00 0.00 35 1006.2
20260905233040 96 294 9.0 15.0 0.00 0.00 0.00 34 1006.2
20260905231537 96 298 9.0 16.0 0.00 0.00 0.00 32 1006.3
20260905230039 96 283 6.0 14.0 0.00 0.00 0.00 33 1006.4